Lid_Strength_Index
1 0 0 1 1 0 0 0 0 -0 -1 -1 -1 -1 -1 -0 2 3 6 4 2 -1 -1 0 1 1 1 2 2 2 6 8 8 8 8 6 7 6 5 6 6 6 6 6 5
-1 -1 -1 -1 -0 -0 -0 -0 -0 -1 -1 -1 -1 -0 -1 -0 3 5 1 -1 -2 -2 1 2 3 2 3 3 3 4 7 8 6 6 7 7 7 7 7 7 7 7 6 5 5
-0 -1 -1 -1 -1 -0 -0 -0 -0 -1 -1 -0 -0 -1 -1 2 4 5 0 -1 -2 -0 1 2 2 3 5 4 4 5 8 6 6 6 6 7 8 7 8 9 8 8 7 6 6
-0 -1 -1 -1 -1 -0 -0 0 -0 -0 -0 -0 0 -0 0 2 9 4 -1 -2 -2 1 2 3 3 5 6 7 5 7 6 7 7 7 7 8 7 9 8 8 7 7 7 6 6
-0 -0 -0 -1 -0 0 0 0 0 0 -0 -0 -0 -0 2 6 7 3 -1 -1 2 2 3 3 4 5 7 7 6 8 8 7 8 8 8 8 9 9 9 8 7 7 7 7 6
0 1 0 0 0 0 0 0 0 0 0 1 0 -2 3 8 4 3 3 3 2 2 3 3 4 4 6 7 7 7 8 8 8 9 9 9 10 9 9 8 8 8 7 7 7
0 1 1 1 0 -0 0 0 1 1 1 0 -0 2 5 7 3 3 3 4 3 3 4 4 4 5 6 8 7 8 10 9 9 9 10 9 10 10 8 8 8 8 7 7 7
0 0 1 1 0 0 1 1 1 1 1 1 0 3 7 4 3 4 3 4 4 4 4 4 4 5 6 7 8 9 8 10 10 10 10 10 11 9 8 9 9 8 8 7 7
0 0 1 1 1 1 1 2 1 1 1 1 2 3 7 3 5 4 4 6 5 4 4 4 5 7 7 8 9 8 10 11 11 10 10 10 11 9 8 9 9 8 8 7 7
0 0 1 1 1 1 1 2 2 1 3 3 3 5 6 7 5 5 4 5 6 6 5 6 5 7 7 8 11 11 11 10 11 10 10 10 10 9 9 9 9 8 8 7 7
1 1 1 1 1 2 2 1 3 3 4 6 6 7 6 5 4 5 5 5 5 5 7 6 8 11 10 9 10 10 10 11 10 10 11 10 10 9 8 8 9 8 8 8 7
1 1 1 1 2 1 -0 2 3 3 6 5 5 6 5 5 7 6 3 6 6 8 7 7 11 10 10 10 10 10 11 11 11 11 11 10 10 9 8 9 8 9 8 7 7
1 1 1 1 2 -1 0 2 1 1 5 6 5 6 6 5 8 8 6 7 7 8 8 9 11 10 10 10 11 10 12 12 13 11 10 10 11 10 9 9 9 8 7 7 7
2 1 2 1 2 -1 1 -1 -1 -0 6 8 7 6 5 6 8 6 6 7 8 9 9 10 11 11 10 11 11 11 11 12 12 12 12 11 13 10 10 10 8 8 7 7 7
2 2 1 1 -0 1 0 -2 -1 1 12 8 7 4 5 7 7 7 6 6 9 10 9 11 11 11 10 12 11 11 11 12 12 11 11 11 12 10 10 10 9 8 8 8 7
2 2 1 -1 -1 -1 -2 -2 0 8 12 9 7 7 7 7 7 7 7 6 7 8 8 10 9 10 11 10 11 10 10 10 11 11 13 12 13 10 10 10 9 8 8 8 8
3 2 -0 -2 1 -2 -2 1 9 15 8 9 8 7 8 8 8 8 8 8 8 10 9 10 10 10 10 10 9 9 9 11 13 13 14 13 13 11 9 9 9 9 8 8 7
3 1 0 -1 -2 -2 0 5 19 9 8 7 8 8 8 8 8 8 9 8 8 8 9 10 11 11 10 11 12 11 11 13 17 15 13 12 15 10 9 8 8 7 7 8 8
3 -2 -1 -2 -2 -1 3 12 8 8 7 8 8 9 8 8 8 8 8 9 9 8 10 10 10 11 11 11 11 11 12 11 13 12 14 10 10 9 8 8 8 8 8 8 8
-0 1 0 -2 -2 1 5 8 7 7 7 7 9 8 9 8 9 8 8 9 9 9 8 9 11 11 11 10 10 11 11 12 11 17 18 13 12 11 10 9 8 8 9 9 8
0 3 0 -2 -1 3 9 7 7 7 6 7 8 8 8 8 8 8 8 9 9 9 8 8 10 10 11 11 10 11 11 12 12 12 15 16 13 8 9 9 9 8 8 8 8
0 5 -0 -1 5 3 6 6 9 7 6 7 6 7 8 8 8 8 9 8 8 8 9 8 9 11 9 9 10 10 11 11 13 13 12 14 14 7 8 8 7 7 8 8 8
2 4 0 0 13 8 6 7 7 7 7 7 7 7 6 8 9 8 8 9 9 8 8 8 9 11 11 11 10 11 10 11 11 12 14 14 11 8 8 7 7 8 8 8 9
2 8 4 3 3 5 7 7 8 7 7 6 7 7 7 8 7 8 8 9 9 8 10 10 9 10 12 10 9 11 11 11 11 13 13 11 10 8 8 9 7 8 8 8 9
2 5 4 11 6 6 6 7 8 9 7 7 7 7 7 9 8 8 8 9 9 10 9 9 10 8 8 9 9 10 10 10 12 12 13 11 12 10 9 9 9 8 9 9 9
4 4 4 4 6 6 8 7 8 8 8 8 8 7 7 8 7 8 7 7 8 8 9 8 10 9 10 9 12 12 10 10 10 10 12 12 12 7 7 7 8 8 9 10 10
0 1 3 6 5 6 6 7 8 7 7 7 7 7 8 7 6 6 5 6 6 7 8 9 9 10 12 10 10 12 9 9 9 9 10 12 11 6 8 8 8 7 8 9 9